| time (UTC) | temp F | wind direction | speed knots | gust knots | rain 1hr in | rain 24hr in | rain mn in | humidity % | barometer mb |
| 20260505051725 | 65 | 138 | 0.0 | 0.0 | 0.00 | 0.00 | 0.00 | 57 | |
| 20260505051223 | 65 | 165 | 0.0 | 0.0 | 0.00 | 0.00 | 0.00 | 58 | |
| 20260505050720 | 65 | 154 | 0.0 | 0.0 | 0.00 | 0.00 | 0.00 | 56 | |
| 20260505050218 | 65 | 169 | 0.0 | 1.7 | 0.00 | 0.00 | 0.00 | 58 | |
| 20260505041648 | 67 | 156 | 0.0 | 0.0 | 0.00 | 0.00 | 0.00 | 56 | |
| 20260505041146 | 68 | 156 | 0.0 | 0.0 | 0.00 | 0.00 | 0.00 | 56 | |
| 20260505040643 | 68 | 154 | 0.0 | 0.0 | 0.00 | 0.00 | 0.00 | 55 | |
| 20260505040140 | 68 | 156 | 0.0 | 0.0 | 0.00 | 0.00 | 0.00 | 54 | |
| 20260505035636 | 68 | 154 | 0.0 | 0.0 | 0.00 | 0.00 | 0.00 | 54 | |
| 20260505035132 | 69 | 146 | 0.0 | 0.0 | 0.00 | 0.00 | 0.00 | 53 | |
| 20260505034629 | 69 | 160 | 0.0 | 0.0 | 0.00 | 0.00 | 0.00 | 52 | |
| 20260505034126 | 69 | 154 | 0.0 | 0.0 | 0.00 | 0.00 | 0.00 | 53 | |
| 20260505033622 | 69 | 145 | 0.0 | 0.0 | 0.00 | 0.00 | 0.00 | 53 | |
| 20260505033121 | 69 | 165 | 0.0 | 0.0 | 0.00 | 0.00 | 0.00 | 53 | |
| 20260505032619 | 69 | 153 | 0.0 | 0.0 | 0.00 | 0.00 | 0.00 | 53 | |
| 20260505032115 | 69 | 150 | 0.0 | 0.0 | 0.00 | 0.00 | 0.00 | 52 | |
| 20260505031612 | 69 | 169 | 0.0 | 0.0 | 0.00 | 0.00 | 0.00 | 51 | |
| 20260505031108 | 70 | 154 | 0.0 | 0.0 | 0.00 | 0.00 | 0.00 | 52 | |
| 20260505030605 | 70 | 136 | 0.0 | 0.0 | 0.00 | 0.00 | 0.00 | 51 | |
| 20260505025557 | 70 | 163 | 0.0 | 0.0 | 0.00 | 0.00 | 0.00 | 50 | |
| 20260505025056 | 70 | 123 | 0.0 | 1.7 | 0.00 | 0.00 | 0.00 | 51 | |
| 20260505024553 | 70 | 178 | 0.0 | 0.0 | 0.00 | 0.00 | 0.00 | 50 | |
| 20260505024050 | 70 | 108 | 0.9 | 1.7 | 0.00 | 0.00 | 0.00 | 51 | |
| 20260505023547 | 71 | 127 | 0.0 | 0.0 | 0.00 | 0.00 | 0.00 | 50 | |
| 20260505023045 | 71 | 164 | 0.0 | 0.0 | 0.00 | 0.00 | 0.00 | 50 | |
| 20260505022542 | 71 | 126 | 0.0 | 1.7 | 0.00 | 0.00 | 0.00 | 50 | |
| 20260505022039 | 71 | 136 | 0.9 | 1.7 | 0.00 | 0.00 | 0.00 | 50 | |
| 20260505021536 | 71 | 150 | 0.0 | 0.0 | 0.00 | 0.00 | 0.00 | 50 | |
| 20260505021033 | 71 | 165 | 0.0 | 0.0 | 0.00 | 0.00 | 0.00 | 49 | |
| 20260505020532 | 71 | 123 | 0.9 | 1.7 | 0.00 | 0.00 | 0.00 | 49 | |
| 20260505020030 | 71 | 133 | 0.9 | 1.7 | 0.00 | 0.00 | 0.00 | 49 | |
| 20260505015527 | 72 | 153 | 0.0 | 0.0 | 0.00 | 0.00 | 0.00 | 49 | |
| 20260505015024 | 72 | 131 | 0.0 | 1.7 | 0.00 | 0.00 | 0.00 | 49 | |
| 20260505014520 | 72 | 150 | 0.0 | 0.0 | 0.00 | 0.00 | 0.00 | 49 | |
| 20260505014018 | 72 | 126 | 0.9 | 1.7 | 0.00 | 0.00 | 0.00 | 48 | |
| 20260505013515 | 72 | 148 | 0.0 | 0.0 | 0.00 | 0.00 | 0.00 | 48 | |
| 20260505013012 | 73 | 163 | 0.0 | 0.0 | 0.00 | 0.00 | 0.00 | 48 | |
| 20260505012510 | 73 | 168 | 0.0 | 0.0 | 0.00 | 0.00 | 0.00 | 48 | |
| 20260505012007 | 73 | 155 | 0.0 | 0.0 | 0.00 | 0.00 | 0.00 | 48 | |
| 20260505011502 | 73 | 130 | 0.0 | 0.0 | 0.00 | 0.00 | 0.00 | 47 | |
| 20260505011000 | 73 | 147 | 0.0 | 0.0 | 0.00 | 0.00 | 0.00 | 47 | |
| 20260505010455 | 74 | 168 | 0.0 | 0.0 | 0.00 | 0.00 | 0.00 | 47 | |
| 20260505005951 | 74 | 127 | 0.9 | 1.7 | 0.00 | 0.00 | 0.00 | 46 | |
| 20260505005448 | 74 | 187 | 0.0 | 0.0 | 0.00 | 0.00 | 0.00 | 47 | |
| 20260505004946 | 74 | 235 | 0.0 | 1.7 | 0.00 | 0.00 | 0.00 | 46 | |
| 20260505004442 | 74 | 148 | 0.0 | 0.0 | 0.00 | 0.00 | 0.00 | 46 | |
| 20260505003939 | 75 | 148 | 1.7 | 1.7 | 0.00 | 0.00 | 0.00 | 46 | |
| 20260505003436 | 75 | 119 | 0.9 | 1.7 | 0.00 | 0.00 | 0.00 | 46 | |
| 20260505002933 | 75 | 127 | 0.0 | 1.7 | 0.00 | 0.00 | 0.00 | 45 | |
| 20260505002429 | 75 | 195 | 0.0 | 0.0 | 0.00 | 0.00 | 0.00 | 45 | |
| 20260505001927 | 76 | 130 | 0.0 | 0.0 | 0.00 | 0.00 | 0.00 | 45 | |
| 20260505001425 | 76 | 149 | 0.0 | 0.0 | 0.00 | 0.00 | 0.00 | 44 | |
| 20260505000921 | 76 | 172 | 0.9 | 1.7 | 0.00 | 0.00 | 0.00 | 43 | |
| 20260505000420 | 76 | 163 | 0.0 | 1.7 | 0.00 | 0.00 | 0.00 | 43 | |
| 20260504235916 | 77 | 152 | 0.9 | 1.7 | 0.00 | 0.00 | 0.00 | 43 | |
| 20260504235413 | 77 | 127 | 0.9 | 1.7 | 0.00 | 0.00 | 0.00 | 43 | |
| 20260504234909 | 77 | 224 | 0.9 | 1.7 | 0.00 | 0.00 | 0.00 | 42 | |
| 20260504234407 | 78 | 157 | 2.6 | 4.3 | 0.00 | 0.00 | 0.00 | 42 | |
| 20260504233903 | 78 | 243 | 1.7 | 1.7 | 0.00 | 0.00 | 0.00 | 42 | |
| 20260504233359 | 78 | 166 | 1.7 | 1.7 | 0.00 | 0.00 | 0.00 | 41 | |
| 20260504232856 | 78 | 132 | 0.0 | 1.7 | 0.00 | 0.00 | 0.00 | 41 | |
| 20260504232353 | 78 | 97 | 2.6 | 4.3 | 0.00 | 0.00 | 0.00 | 40 | |
| 20260504231850 | 78 | 64 | 0.9 | 1.7 | 0.00 | 0.00 | 0.00 | 40 | |
| 20260504231346 | 79 | 97 | 0.0 | 0.0 | 0.00 | 0.00 | 0.00 | 41 | |
| 20260504230843 | 79 | 234 | 1.7 | 4.3 | 0.00 | 0.00 | 0.00 | 40 | |
| 20260504230341 | 79 | 129 | 2.6 | 4.3 | 0.00 | 0.00 | 0.00 | 40 | |
| 20260504225839 | 80 | 139 | 2.6 | 4.3 | 0.00 | 0.00 | 0.00 | 40 | |
| 20260504225335 | 80 | 117 | 2.6 | 4.3 | 0.00 | 0.00 | 0.00 | 38 | |
| 20260504224833 | 81 | 105 | 3.5 | 7.0 | 0.00 | 0.00 | 0.00 | 38 | |
| 20260504224329 | 81 | 166 | 2.6 | 4.3 | 0.00 | 0.00 | 0.00 | 38 | |
| 20260504223826 | 82 | 182 | 5.2 | 7.0 | 0.00 | 0.00 | 0.00 | 37 | |
| 20260504223322 | 82 | 158 | 1.7 | 1.7 | 0.00 | 0.00 | 0.00 | 36 | |
| 20260504222818 | 82 | 139 | 0.9 | 1.7 | 0.00 | 0.00 | 0.00 | 36 | |
| 20260504222315 | 82 | 121 | 0.9 | 1.7 | 0.00 | 0.00 | 0.00 | 35 | |
| 20260504221814 | 83 | 271 | 1.7 | 1.7 | 0.00 | 0.00 | 0.00 | 35 | |
| 20260504221310 | 83 | 339 | 0.9 | 1.7 | 0.00 | 0.00 | 0.00 | 35 | |
| 20260504220807 | 83 | 87 | 1.7 | 1.7 | 0.00 | 0.00 | 0.00 | 35 | |
| 20260504220304 | 83 | 175 | 1.7 | 1.7 | 0.00 | 0.00 | 0.00 | 35 | |
| 20260504215801 | 83 | 144 | 0.0 | 1.7 | 0.00 | 0.00 | 0.00 | 35 | |
| 20260504215257 | 83 | 139 | 2.6 | 4.3 | 0.00 | 0.00 | 0.00 | 34 | |
| 20260504214753 | 83 | 149 | 2.6 | 4.3 | 0.00 | 0.00 | 0.00 | 35 | |
| 20260504214250 | 83 | 91 | 2.6 | 4.3 | 0.00 | 0.00 | 0.00 | 34 | |
| 20260504213747 | 83 | 104 | 1.7 | 4.3 | 0.00 | 0.00 | 0.00 | 35 | |
| 20260504213243 | 83 | 241 | 2.6 | 4.3 | 0.00 | 0.00 | 0.00 | 34 | |
| 20260504212740 | 83 | 88 | 1.7 | 1.7 | 0.00 | 0.00 | 0.00 | 35 | |
| 20260504212237 | 83 | 194 | 2.6 | 4.3 | 0.00 | 0.00 | 0.00 | 35 | |
| 20260504211735 | 83 | 138 | 5.2 | 7.0 | 0.00 | 0.00 | 0.00 | 34 | |
| 20260504211230 | 83 | 171 | 1.7 | 4.3 | 0.00 | 0.00 | 0.00 | 36 | |
| 20260504210728 | 84 | 50 | 4.3 | 7.0 | 0.00 | 0.00 | 0.00 | 34 | |
| 20260504210225 | 84 | 155 | 2.6 | 4.3 | 0.00 | 0.00 | 0.00 | 34 | |
| 20260504205722 | 83 | 230 | 4.3 | 7.0 | 0.00 | 0.00 | 0.00 | 34 | |
| 20260504205220 | 83 | 168 | 1.7 | 1.7 | 0.00 | 0.00 | 0.00 | 35 | |
| 20260504204718 | 83 | 168 | 3.5 | 4.3 | 0.00 | 0.00 | 0.00 | 34 | |
| 20260504204216 | 83 | 294 | 1.7 | 1.7 | 0.00 | 0.00 | 0.00 | 34 | |
| 20260504203715 | 83 | 202 | 1.7 | 1.7 | 0.00 | 0.00 | 0.00 | 34 | |
| 20260504203212 | 82 | 196 | 2.6 | 4.3 | 0.00 | 0.00 | 0.00 | 34 | |
| 20260504202712 | 83 | 225 | 2.6 | 4.3 | 0.00 | 0.00 | 0.00 | 34 | |
| 20260504202209 | 83 | 215 | 1.7 | 1.7 | 0.00 | 0.00 | 0.00 | 33 | |
| 20260504201706 | 83 | 92 | 2.6 | 4.3 | 0.00 | 0.00 | 0.00 | 35 | |
| 20260504201204 | 83 | 65 | 1.7 | 1.7 | 0.00 | 0.00 | 0.00 | 35 | |
| 20260504200701 | 83 | 351 | 2.6 | 4.3 | 0.00 | 0.00 | 0.00 | 34 | |
| 20260504200157 | 83 | 74 | 2.6 | 4.3 | 0.00 | 0.00 | 0.00 | 33 | |
| 20260504195653 | 82 | 338 | 2.6 | 4.3 | 0.00 | 0.00 | 0.00 | 33 | |
| 20260504195149 | 82 | 99 | 1.7 | 1.7 | 0.00 | 0.00 | 0.00 | 33 | |
| 20260504194646 | 82 | 175 | 0.9 | 1.7 | 0.00 | 0.00 | 0.00 | 34 | |
| 20260504194142 | 82 | 85 | 7.0 | 11.3 | 0.00 | 0.00 | 0.00 | 35 | |
| 20260504193639 | 82 | 176 | 3.5 | 4.3 | 0.00 | 0.00 | 0.00 | 35 | |
| 20260504193137 | 82 | 47 | 0.9 | 1.7 | 0.00 | 0.00 | 0.00 | 36 | |
| 20260504192635 | 82 | 62 | 2.6 | 4.3 | 0.00 | 0.00 | 0.00 | 34 | |
| 20260504192133 | 82 | 213 | 5.2 | 7.0 | 0.00 | 0.00 | 0.00 | 34 | |
| 20260504191631 | 82 | 236 | 4.3 | 7.0 | 0.00 | 0.00 | 0.00 | 33 | |
| 20260504191127 | 82 | 338 | 2.6 | 4.3 | 0.00 | 0.00 | 0.00 | 34 | |
| 20260504190623 | 82 | 158 | 2.6 | 4.3 | 0.00 | 0.00 | 0.00 | 36 | |
| 20260504190120 | 82 | 259 | 2.6 | 4.3 | 0.00 | 0.00 | 0.00 | 33 | |
| 20260504185616 | 82 | 176 | 6.1 | 8.7 | 0.00 | 0.00 | 0.00 | 33 | |
| 20260504185113 | 82 | 90 | 1.7 | 4.3 | 0.00 | 0.00 | 0.00 | 34 | |
| 20260504184608 | 82 | 16 | 3.5 | 4.3 | 0.00 | 0.00 | 0.00 | 34 | |
| 20260504184104 | 82 | 185 | 1.7 | 1.7 | 0.00 | 0.00 | 0.00 | 35 | |
| 20260504183601 | 82 | 143 | 0.0 | 0.0 | 0.00 | 0.00 | 0.00 | 35 | |
| 20260504183059 | 82 | 161 | 0.9 | 1.7 | 0.00 | 0.00 | 0.00 | 35 | |
| 20260504182556 | 82 | 174 | 3.5 | 7.0 | 0.00 | 0.00 | 0.00 | 35 | |
| 20260504182053 | 82 | 97 | 3.5 | 7.0 | 0.00 | 0.00 | 0.00 | 35 | |
| 20260504181550 | 82 | 93 | 4.3 | 7.0 | 0.00 | 0.00 | 0.00 | 36 | |
| 20260504181048 | 82 | 213 | 3.5 | 4.3 | 0.00 | 0.00 | 0.00 | 35 | |
| 20260504180547 | 82 | 115 | 5.2 | 8.7 | 0.00 | 0.00 | 0.00 | 34 | |
| 20260504180046 | 81 | 90 | 1.7 | 1.7 | 0.00 | 0.00 | 0.00 | 35 | |
| 20260504175542 | 81 | 287 | 4.3 | 7.0 | 0.00 | 0.00 | 0.00 | 35 | |
| 20260504175039 | 81 | 184 | 0.0 | 1.7 | 0.00 | 0.00 | 0.00 | 36 | |
| 20260504174537 | 81 | 218 | 1.7 | 1.7 | 0.00 | 0.00 | 0.00 | 34 | |
| 20260504174033 | 81 | 201 | 2.6 | 4.3 | 0.00 | 0.00 | 0.00 | 35 | |
| 20260504173531 | 80 | 158 | 2.6 | 4.3 | 0.00 | 0.00 | 0.00 | 37 | |
| 20260504173028 | 80 | 97 | 2.6 | 4.3 | 0.00 | 0.00 | 0.00 | 34 | |
| 20260504172524 | 80 | 144 | 3.5 | 4.3 | 0.00 | 0.00 | 0.00 | 34 | |
| 20260504172021 | 80 | 173 | 0.9 | 1.7 | 0.00 | 0.00 | 0.00 | 34 | |
| 20260504171518 | 80 | 311 | 2.6 | 4.3 | 0.00 | 0.00 | 0.00 | 36 | |
| 20260504171015 | 80 | 210 | 2.6 | 4.3 | 0.00 | 0.00 | 0.00 | 35 | |
| 20260504170510 | 80 | 119 | 1.7 | 4.3 | 0.00 | 0.00 | 0.00 | 35 | |
| 20260504160431 | 78 | 164 | 3.5 | 4.3 | 0.00 | 0.00 | 0.00 | 36 | |
| 20260504150854 | 73 | 196 | 0.9 | 1.7 | 0.00 | 0.00 | 0.00 | 40 | |
| 20260504150351 | 72 | 205 | 2.6 | 4.3 | 0.00 | 0.00 | 0.00 | 42 | |
| 20260504141321 | 68 | 237 | 1.7 | 1.7 | 0.00 | 0.00 | 0.00 | 49 | |
| 20260504140817 | 68 | 207 | 2.6 | 4.3 | 0.00 | 0.00 | 0.00 | 49 | |
| 20260504140313 | 67 | 213 | 2.6 | 4.3 | 0.00 | 0.00 | 0.00 | 53 | |
| 20260504130742 | 62 | 170 | 0.0 | 1.7 | 0.00 | 0.00 | 0.00 | 63 | |
| 20260504130238 | 62 | 134 | 0.0 | 0.0 | 0.00 | 0.00 | 0.00 | 63 | |
| 20260504120202 | 53 | 150 | 0.0 | 0.0 | 0.00 | 0.00 | 0.00 | 88 | |
| 20260504110629 | 53 | 150 | 0.0 | 0.0 | 0.00 | 0.00 | 0.00 | 89 | |
| 20260504110125 | 53 | 153 | 0.0 | 0.0 | 0.00 | 0.00 | 0.00 | 88 | |
| 20260504100551 | 54 | 153 | 0.0 | 0.0 | 0.00 | 0.00 | 0.00 | 84 | |
| 20260504081944 | 56 | 151 | 0.0 | 0.0 | 0.00 | 0.00 | 0.00 | 74 | |
| 20260504081442 | 56 | 152 | 0.0 | 0.0 | 0.00 | 0.00 | 0.00 | 73 | |
| 20260504080937 | 57 | 155 | 0.0 | 0.0 | 0.00 | 0.00 | 0.00 | 72 | |
| 20260504080434 | 57 | 155 | 0.0 | 0.0 | 0.00 | 0.00 | 0.00 | 72 | |
| 20260504070402 | 60 | 156 | 0.0 | 0.0 | 0.00 | 0.00 | 0.00 | 64 |